contact:dominique.lefevre@mio.osupytheas.fr, maurice.libes@osupytheas.fr, didier.mallarino@osupytheas.fr
Project:EMSO http://www.emso-fr.org/EMSO-France
Depth: 2436.0 m
Title:EMSO Ligure Ouest : Data MII capteur AQUADOPP
Date,Latitude,Longitude,X_East,Y_North,Z_Up,Amplitude_X,Amplitude_Y,Amplitude_Z,Batterie,SoundSpeed,Heading,Pitch,Roll,Pressure,TIS,Speed,Direction
, degrees North, degrees East, m.s-1, m.s-1,m.s-1, 1, 1, 1, Volt, m.s-1, degree, degree, degree, dbar, degree_C, m.s-1, degree
2020-07-14T00:04:03,42.805,6.029,0.001,0.004,0.0,102.0,118.0,100.0,13.4,1505.2,325.1,-0.8,1.8,2470.468,13.3,0.004,14.0
2020-07-14T00:07:03,42.805,6.029,0.02,0.021,0.02,102.0,115.0,100.0,13.4,1505.3,324.6,-0.8,1.8,2470.401,13.31,0.028,43.6
2020-07-14T00:10:03,42.805,6.029,0.018,0.03,-0.011,103.0,117.0,101.0,13.3,1505.3,326.3,-0.7,1.8,2470.423,13.31,0.034,31.0
2020-07-14T00:13:03,42.805,6.029,0.02,0.002,-0.01,103.0,118.0,100.0,13.4,1505.3,326.4,-0.7,1.8,2470.45,13.32,0.02,84.3
2020-07-14T00:16:03,42.805,6.029,0.032,-0.001,-0.025,102.0,118.0,101.0,13.4,1505.3,327.3,-0.7,1.8,2470.441,13.32,0.032,91.8
2020-07-14T00:19:03,42.805,6.029,-0.004,0.003,-0.004,102.0,119.0,100.0,13.3,1505.3,327.2,-0.7,1.8,2470.371,13.32,0.005,306.9
2020-07-14T00:22:03,42.805,6.029,0.012,0.001,-0.013,103.0,117.0,99.0,13.4,1505.3,325.3,-0.7,1.9,2470.39,13.32,0.012,85.2
2020-07-14T00:25:03,42.805,6.029,0.029,-0.02,-0.028,103.0,117.0,99.0,13.4,1505.3,326.4,-0.7,1.8,2470.404,13.32,0.035,124.6
2020-07-14T00:28:03,42.805,6.029,0.033,0.002,-0.001,101.0,117.0,100.0,13.3,1505.3,324.9,-0.7,1.8,2470.433,13.32,0.033,86.5
2020-07-14T00:31:03,42.805,6.029,0.029,-0.006,-0.015,102.0,115.0,100.0,13.3,1505.3,326.9,-0.7,1.8,2470.391,13.32,0.029,101.7
2020-07-14T00:34:03,42.805,6.029,0.03,0.019,0.0,101.0,118.0,101.0,13.3,1505.3,326.3,-0.7,1.8,2470.4,13.32,0.035,57.7
2020-07-14T00:37:03,42.805,6.029,0.033,-0.006,-0.025,101.0,118.0,100.0,13.4,1505.3,326.5,-0.7,1.8,2470.443,13.32,0.033,100.3
2020-07-14T00:40:03,42.805,6.029,0.017,0.007,-0.027,101.0,120.0,101.0,13.4,1505.3,323.6,-0.7,1.8,2470.43,13.32,0.018,67.6
2020-07-14T00:43:03,42.805,6.029,0.013,0.018,-0.004,103.0,117.0,99.0,13.4,1505.3,326.5,-0.7,1.8,2470.419,13.32,0.022,35.8
2020-07-14T00:46:03,42.805,6.029,0.021,-0.004,-0.043,103.0,117.0,100.0,13.4,1505.3,324.8,-0.7,1.8,2470.411,13.32,0.021,100.8
2020-07-14T00:49:03,42.805,6.029,0.032,0.009,0.002,103.0,116.0,100.0,13.4,1505.3,323.8,-0.6,1.8,2470.364,13.32,0.033,74.3
2020-07-14T00:52:03,42.805,6.029,0.012,-0.008,-0.033,102.0,116.0,101.0,13.4,1505.3,325.9,-0.7,1.8,2470.398,13.32,0.014,123.7
2020-07-14T00:55:03,42.805,6.029,0.0,0.023,0.0,102.0,116.0,101.0,13.3,1505.3,324.5,-0.7,1.8,2470.382,13.32,0.023,0.0
2020-07-14T00:58:03,42.805,6.029,0.02,0.007,0.003,103.0,119.0,99.0,13.4,1505.3,327.0,-0.7,1.8,2470.387,13.32,0.021,70.7
2020-07-14T01:04:03,42.805,6.029,0.017,0.021,0.002,101.0,117.0,101.0,13.4,1505.2,324.7,-0.8,1.8,2470.426,13.3,0.027,39.0
2020-07-14T01:07:03,42.805,6.029,0.003,0.005,-0.01,103.0,117.0,100.0,13.4,1505.3,325.3,-0.7,1.9,2470.406,13.31,0.005,31.0
2020-07-14T01:10:03,42.805,6.029,0.019,-0.001,-0.004,102.0,117.0,101.0,13.3,1505.3,327.5,-0.7,1.9,2470.431,13.31,0.019,93.0
2020-07-14T01:13:03,42.805,6.029,0.017,0.028,0.002,102.0,120.0,100.0,13.4,1505.3,326.1,-0.7,1.8,2470.409,13.32,0.032,31.3
2020-07-14T01:16:03,42.805,6.029,0.015,0.005,0.012,103.0,115.0,100.0,13.4,1505.3,324.4,-0.7,1.8,2470.446,13.32,0.015,71.6
2020-07-14T01:19:03,42.805,6.029,0.028,0.006,-0.009,102.0,118.0,100.0,13.4,1505.3,326.4,-0.7,1.8,2470.448,13.32,0.028,77.9
2020-07-14T01:22:03,42.805,6.029,0.049,0.003,0.01,102.0,118.0,100.0,13.3,1505.3,326.7,-0.7,1.8,2470.399,13.32,0.049,86.5
2020-07-14T01:25:03,42.805,6.029,0.0,0.007,-0.034,102.0,119.0,100.0,13.4,1505.3,327.7,-0.7,1.8,2470.422,13.32,0.007,0.0
2020-07-14T01:28:03,42.805,6.029,0.031,0.014,-0.025,102.0,118.0,100.0,13.4,1505.3,325.7,-0.7,1.9,2470.406,13.32,0.034,65.7
2020-07-14T01:31:03,42.805,6.029,0.005,0.013,-0.025,103.0,119.0,101.0,13.3,1505.3,326.2,-0.7,1.9,2470.416,13.32,0.013,21.0
2020-07-14T01:34:03,42.805,6.029,0.019,0.035,-0.003,102.0,119.0,100.0,13.4,1505.3,325.1,-0.7,1.9,2470.432,13.32,0.039,28.5
2020-07-14T01:37:03,42.805,6.029,0.014,0.011,-0.037,103.0,119.0,99.0,13.3,1505.3,327.5,-0.7,1.9,2470.407,13.32,0.017,51.8
2020-07-14T01:40:03,42.805,6.029,-0.005,0.015,-0.032,102.0,120.0,101.0,13.4,1505.3,326.6,-0.7,1.8,2470.385,13.32,0.015,341.6
2020-07-14T01:43:03,42.805,6.029,0.013,0.015,0.018,102.0,118.0,100.0,13.4,1505.3,324.2,-0.7,1.8,2470.433,13.32,0.019,40.9
2020-07-14T01:46:03,42.805,6.029,0.033,0.0,-0.007,103.0,118.0,101.0,13.4,1505.3,323.3,-0.7,1.8,2470.413,13.32,0.033,90.0
2020-07-14T01:49:03,42.805,6.029,0.025,0.023,0.0,102.0,119.0,101.0,13.3,1505.3,325.8,-0.7,1.8,2470.402,13.32,0.033,47.4
2020-07-14T01:52:03,42.805,6.029,0.029,0.004,0.018,101.0,119.0,101.0,13.4,1505.3,324.2,-0.7,1.8,2470.385,13.32,0.029,82.2
2020-07-14T01:55:03,42.805,6.029,0.033,-0.002,-0.028,102.0,121.0,101.0,13.3,1505.3,326.8,-0.7,1.8,2470.43,13.32,0.033,93.5
2020-07-14T01:58:03,42.805,6.029,0.033,0.012,0.004,102.0,119.0,100.0,13.3,1505.3,326.1,-0.7,1.9,2470.404,13.32,0.035,70.0
2020-07-14T02:04:03,42.805,6.029,0.027,0.027,0.005,102.0,119.0,101.0,13.4,1505.2,324.0,-0.7,1.8,2470.434,13.3,0.038,45.0
2020-07-14T02:07:03,42.805,6.029,0.024,0.007,-0.002,103.0,119.0,100.0,13.4,1505.3,327.7,-0.7,1.8,2470.442,13.31,0.025,73.7
2020-07-14T02:10:03,42.805,6.029,0.014,0.011,-0.06,102.0,120.0,101.0,13.4,1505.3,323.6,-0.7,1.8,2470.416,13.31,0.017,51.8
2020-07-14T02:13:03,42.805,6.029,0.021,0.006,0.0,100.0,119.0,101.0,13.3,1505.3,322.9,-0.7,1.8,2470.424,13.32,0.021,74.1
2020-07-14T02:16:03,42.805,6.029,0.019,-0.004,-0.017,103.0,120.0,100.0,13.3,1505.3,324.8,-0.7,1.9,2470.415,13.32,0.019,101.9
2020-07-14T02:19:03,42.805,6.029,0.002,0.008,-0.011,103.0,119.0,100.0,13.4,1505.3,327.6,-0.7,1.8,2470.446,13.32,0.008,14.0
2020-07-14T02:25:03,42.805,6.029,0.043,-0.001,-0.016,103.0,122.0,100.0,13.3,1505.2,326.4,-0.7,1.8,2470.423,13.3,0.043,91.3
2020-07-14T02:28:03,42.805,6.029,0.014,0.0,-0.014,103.0,117.0,100.0,13.4,1505.3,323.5,-0.7,1.8,2470.404,13.31,0.014,90.0
2020-07-14T02:31:03,42.805,6.029,0.03,-0.007,-0.024,103.0,120.0,100.0,13.4,1505.3,324.7,-0.7,1.8,2470.431,13.31,0.03,103.1
2020-07-14T02:34:03,42.805,6.029,0.024,-0.008,-0.028,102.0,118.0,100.0,13.4,1505.3,323.4,-0.7,1.8,2470.455,13.32,0.025,108.4
2020-07-14T02:37:03,42.805,6.029,0.007,0.007,-0.015,102.0,118.0,101.0,13.4,1505.3,323.6,-0.7,1.8,2470.402,13.32,0.009,45.0
2020-07-14T02:40:03,42.805,6.029,0.02,-0.004,-0.007,101.0,117.0,99.0,13.3,1505.3,326.3,-0.7,1.8,2470.435,13.32,0.02,101.3
2020-07-14T02:43:03,42.805,6.029,0.045,0.009,-0.001,103.0,118.0,100.0,13.3,1505.3,324.1,-0.7,1.8,2470.481,13.32,0.045,78.7
2020-07-14T02:46:03,42.805,6.029,0.002,0.004,-0.028,103.0,116.0,101.0,13.3,1505.3,324.5,-0.7,1.8,2470.383,13.32,0.004,26.6
2020-07-14T02:49:03,42.805,6.029,0.027,0.01,-0.015,103.0,118.0,100.0,13.3,1505.3,324.8,-0.7,1.8,2470.435,13.32,0.028,69.7
2020-07-14T02:52:03,42.805,6.029,-0.002,0.018,0.022,102.0,120.0,101.0,13.3,1505.3,326.7,-0.7,1.8,2470.435,13.32,0.018,353.7
2020-07-14T02:55:03,42.805,6.029,0.026,-0.003,-0.033,100.0,118.0,101.0,13.4,1505.3,325.8,-0.7,1.8,2470.406,13.32,0.026,96.6
2020-07-14T02:58:03,42.805,6.029,0.024,0.009,-0.009,102.0,119.0,100.0,13.4,1505.3,322.9,-0.7,1.9,2470.406,13.32,0.025,69.4
2020-07-14T03:04:03,42.805,6.029,0.01,0.012,-0.017,102.0,118.0,102.0,13.4,1505.2,324.4,-0.7,1.8,2470.432,13.3,0.015,39.8
2020-07-14T03:07:03,42.805,6.029,0.006,0.002,-0.033,103.0,118.0,100.0,13.4,1505.3,326.7,-0.7,1.9,2470.428,13.31,0.006,71.6
2020-07-14T03:10:03,42.805,6.029,0.017,0.014,0.003,102.0,119.0,100.0,13.3,1505.3,326.6,-0.7,1.8,2470.437,13.31,0.022,50.5
2020-07-14T03:13:03,42.805,6.029,0.001,0.022,-0.026,103.0,118.0,99.0,13.4,1505.3,326.3,-0.7,1.8,2470.402,13.32,0.022,2.6
2020-07-14T03:16:03,42.805,6.029,0.009,0.01,-0.038,102.0,120.0,99.0,13.4,1505.3,326.1,-0.7,1.8,2470.404,13.32,0.013,42.0
2020-07-14T03:19:03,42.805,6.029,0.016,-0.009,-0.025,102.0,119.0,100.0,13.4,1505.3,325.2,-0.7,1.8,2470.405,13.32,0.018,119.4
2020-07-14T03:22:03,42.805,6.029,0.028,0.014,-0.014,101.0,119.0,101.0,13.4,1505.3,327.9,-0.7,1.8,2470.398,13.32,0.031,63.4
2020-07-14T03:25:03,42.805,6.029,0.026,0.012,-0.006,102.0,119.0,100.0,13.3,1505.3,323.9,-0.7,1.9,2470.368,13.32,0.028,65.2
2020-07-14T03:28:03,42.805,6.029,0.017,-0.001,-0.013,102.0,121.0,100.0,13.4,1505.3,324.4,-0.7,1.8,2470.429,13.32,0.017,93.4
2020-07-14T03:31:03,42.805,6.029,0.023,0.01,-0.018,103.0,118.0,100.0,13.4,1505.3,326.2,-0.7,1.8,2470.356,13.32,0.025,66.5
2020-07-14T03:34:03,42.805,6.029,0.013,0.005,-0.03,103.0,119.0,100.0,13.4,1505.3,325.3,-0.7,1.8,2470.397,13.32,0.013,69.0
2020-07-14T03:37:03,42.805,6.029,0.03,-0.014,-0.029,103.0,119.0,100.0,13.4,1505.3,326.1,-0.7,1.8,2470.373,13.32,0.033,115.0
2020-07-14T03:40:03,42.805,6.029,-0.005,0.005,-0.029,103.0,120.0,100.0,13.4,1505.3,328.0,-0.7,1.8,2470.38,13.32,0.007,315.0
2020-07-14T03:43:03,42.805,6.029,0.036,0.004,-0.024,103.0,118.0,100.0,13.3,1505.3,327.4,-0.7,1.8,2470.35,13.32,0.036,83.7
2020-07-14T03:46:03,42.805,6.029,0.025,0.0,-0.03,101.0,118.0,99.0,13.4,1505.3,328.2,-0.7,1.8,2470.389,13.32,0.025,90.0
2020-07-14T03:49:03,42.805,6.029,0.004,0.013,-0.01,102.0,118.0,100.0,13.4,1505.3,328.1,-0.7,1.8,2470.368,13.32,0.013,17.1
2020-07-14T03:52:03,42.805,6.029,0.018,-0.007,-0.034,102.0,122.0,100.0,13.4,1505.3,324.7,-0.7,1.8,2470.392,13.32,0.019,111.2
2020-07-14T03:55:03,42.805,6.029,0.025,0.009,0.014,103.0,120.0,100.0,13.4,1505.3,326.6,-0.7,1.8,2470.386,13.32,0.026,70.2
2020-07-14T03:58:03,42.805,6.029,0.024,0.005,-0.021,102.0,121.0,100.0,13.4,1505.3,323.5,-0.7,1.8,2470.399,13.32,0.024,78.2
2020-07-14T04:04:03,42.805,6.029,-0.006,0.016,0.002,102.0,121.0,101.0,13.4,1505.2,325.1,-0.7,1.8,2470.398,13.3,0.017,339.4
2020-07-14T04:07:03,42.805,6.029,0.029,0.005,-0.03,102.0,122.0,100.0,13.4,1505.3,324.5,-0.7,1.8,2470.4,13.31,0.029,80.2
2020-07-14T04:10:03,42.805,6.029,0.018,0.0,-0.045,102.0,118.0,99.0,13.3,1505.3,325.4,-0.8,1.9,2470.388,13.31,0.018,90.0
2020-07-14T04:13:03,42.805,6.029,0.02,0.016,0.015,102.0,119.0,100.0,13.3,1505.3,325.0,-0.7,1.8,2470.369,13.32,0.025,51.3
2020-07-14T04:16:03,42.805,6.029,0.016,0.004,-0.051,101.0,119.0,101.0,13.4,1505.3,323.8,-0.7,1.8,2470.407,13.32,0.016,76.0
2020-07-14T04:19:03,42.805,6.029,0.022,0.0,0.005,101.0,121.0,100.0,13.4,1505.3,324.6,-0.7,1.8,2470.402,13.32,0.022,90.0
2020-07-14T04:22:03,42.805,6.029,0.039,0.015,-0.02,102.0,121.0,100.0,13.4,1505.3,323.3,-0.7,1.8,2470.385,13.32,0.041,69.0
2020-07-14T04:25:03,42.805,6.029,0.045,0.015,0.0,102.0,121.0,101.0,13.3,1505.3,328.2,-0.7,1.8,2470.42,13.32,0.047,71.6
2020-07-14T04:28:03,42.805,6.029,0.037,-0.006,-0.035,102.0,119.0,100.0,13.4,1505.3,326.4,-0.7,1.9,2470.356,13.32,0.037,99.2
2020-07-14T04:31:03,42.805,6.029,-0.01,0.016,-0.037,101.0,123.0,100.0,13.3,1505.3,328.3,-0.7,1.8,2470.406,13.32,0.018,328.0
2020-07-14T04:34:03,42.805,6.029,0.027,0.007,0.004,103.0,121.0,100.0,13.4,1505.3,322.8,-0.7,1.8,2470.35,13.32,0.027,75.5
2020-07-14T04:37:03,42.805,6.029,0.021,0.008,0.002,102.0,118.0,100.0,13.4,1505.3,325.2,-0.7,1.8,2470.4,13.32,0.022,69.1
2020-07-14T04:40:03,42.805,6.029,0.009,0.025,-0.009,103.0,120.0,100.0,13.3,1505.3,323.5,-0.7,1.8,2470.34,13.32,0.026,19.8
2020-07-14T04:43:03,42.805,6.029,-0.009,0.02,-0.022,102.0,123.0,100.0,13.4,1505.3,326.7,-0.7,1.8,2470.371,13.32,0.021,335.8
2020-07-14T04:46:03,42.805,6.029,0.034,0.005,0.005,101.0,124.0,101.0,13.3,1505.3,324.2,-0.7,1.8,2470.347,13.32,0.034,81.6
2020-07-14T04:49:03,42.805,6.029,-0.008,0.017,-0.014,102.0,121.0,100.0,13.3,1505.3,328.3,-0.7,1.8,2470.359,13.32,0.018,334.8
2020-07-14T04:52:03,42.805,6.029,0.016,0.021,-0.002,102.0,118.0,100.0,13.4,1505.3,326.7,-0.7,1.8,2470.373,13.32,0.026,37.3
2020-07-14T04:55:03,42.805,6.029,0.039,0.008,0.0,102.0,120.0,100.0,13.4,1505.3,327.2,-0.7,1.8,2470.352,13.32,0.039,78.4
2020-07-14T04:58:03,42.805,6.029,0.031,-0.007,0.004,101.0,122.0,100.0,13.4,1505.3,324.2,-0.7,1.8,2470.372,13.32,0.031,102.7
2020-07-14T05:04:03,42.805,6.029,0.033,0.005,-0.027,102.0,124.0,100.0,13.3,1505.2,326.5,-0.7,1.8,2470.383,13.3,0.033,81.4
2020-07-14T05:07:03,42.805,6.029,0.006,0.016,-0.028,102.0,123.0,100.0,13.3,1505.3,328.6,-0.7,1.8,2470.383,13.31,0.017,20.6
2020-07-14T05:10:03,42.805,6.029,0.028,-0.003,0.009,101.0,125.0,101.0,13.4,1505.3,325.2,-0.7,1.8,2470.352,13.31,0.028,96.1
2020-07-14T05:13:03,42.805,6.029,0.019,0.011,0.002,102.0,122.0,100.0,13.4,1505.3,328.2,-0.7,1.8,2470.376,13.32,0.021,59.9
2020-07-14T05:16:03,42.805,6.029,0.035,0.002,-0.019,102.0,121.0,101.0,13.4,1505.3,326.5,-0.7,1.8,2470.324,13.32,0.035,86.7
2020-07-14T05:19:03,42.805,6.029,0.042,0.026,-0.003,104.0,121.0,99.0,13.3,1505.3,326.3,-0.7,1.9,2470.343,13.32,0.049,58.2
2020-07-14T05:22:03,42.805,6.029,0.027,0.01,-0.011,102.0,123.0,100.0,13.4,1505.3,323.4,-0.7,1.8,2470.368,13.32,0.028,69.7
2020-07-14T05:25:03,42.805,6.029,0.038,0.01,-0.005,102.0,122.0,101.0,13.3,1505.3,324.7,-0.7,1.8,2470.393,13.32,0.039,75.3
2020-07-14T05:28:03,42.805,6.029,0.039,-0.011,0.016,102.0,120.0,99.0,13.4,1505.3,327.8,-0.7,1.8,2470.372,13.32,0.04,105.7
2020-07-14T05:31:03,42.805,6.029,0.005,0.023,-0.026,102.0,122.0,100.0,13.4,1505.3,323.2,-0.7,1.8,2470.351,13.32,0.023,12.3
2020-07-14T05:34:03,42.805,6.029,0.026,-0.008,0.012,102.0,122.0,100.0,13.4,1505.3,323.4,-0.7,1.8,2470.359,13.32,0.027,107.1
2020-07-14T05:37:03,42.805,6.029,-0.008,-0.001,-0.034,103.0,120.0,99.0,13.4,1505.3,325.2,-0.7,1.8,2470.355,13.32,0.008,262.9
2020-07-14T05:40:03,42.805,6.029,0.027,0.01,0.001,104.0,123.0,100.0,13.3,1505.3,324.0,-0.7,1.8,2470.327,13.32,0.028,69.7
2020-07-14T05:43:03,42.805,6.029,0.023,-0.002,-0.016,102.0,121.0,100.0,13.3,1505.3,328.1,-0.7,1.8,2470.353,13.32,0.023,95.0
2020-07-14T05:46:03,42.805,6.029,-0.005,0.025,-0.032,102.0,125.0,99.0,13.4,1505.3,324.3,-0.8,1.8,2470.363,13.32,0.025,348.7
2020-07-14T05:49:03,42.805,6.029,0.024,0.014,-0.02,101.0,121.0,101.0,13.3,1505.3,325.8,-0.7,1.9,2470.349,13.32,0.027,59.7
2020-07-14T05:52:03,42.805,6.029,0.013,0.011,-0.019,102.0,122.0,100.0,13.4,1505.3,324.7,-0.7,1.8,2470.355,13.32,0.017,49.8
2020-07-14T05:55:03,42.805,6.029,0.031,0.006,0.004,103.0,122.0,99.0,13.4,1505.3,324.6,-0.7,1.8,2470.36,13.32,0.031,79.0
2020-07-14T05:58:03,42.805,6.029,0.021,0.014,-0.031,103.0,120.0,101.0,13.4,1505.3,325.9,-0.7,1.8,2470.326,13.32,0.025,56.3
2020-07-14T06:04:03,42.805,6.029,0.012,-0.011,-0.026,102.0,124.0,100.0,13.4,1505.2,326.1,-0.8,1.8,2470.419,13.3,0.016,132.5
2020-07-14T06:07:03,42.805,6.029,0.051,-0.002,-0.017,102.0,120.0,100.0,13.4,1505.3,323.3,-0.7,1.9,2470.357,13.31,0.051,92.2
2020-07-14T06:10:03,42.805,6.029,0.017,-0.001,-0.015,103.0,120.0,100.0,13.4,1505.3,327.6,-0.7,1.8,2470.356,13.31,0.017,93.4
2020-07-14T06:13:03,42.805,6.029,0.042,-0.003,-0.015,103.0,118.0,100.0,13.3,1505.3,325.5,-0.8,1.8,2470.339,13.32,0.042,94.1
2020-07-14T06:16:03,42.805,6.029,0.035,0.004,-0.027,102.0,123.0,101.0,13.4,1505.3,326.3,-0.7,1.9,2470.358,13.32,0.035,83.5
2020-07-14T06:19:03,42.805,6.029,0.029,-0.012,-0.038,102.0,120.0,100.0,13.3,1505.3,323.5,-0.7,1.8,2470.35,13.32,0.031,112.5
2020-07-14T06:22:03,42.805,6.029,0.021,-0.006,-0.016,101.0,120.0,101.0,13.4,1505.3,325.4,-0.7,1.8,2470.341,13.32,0.021,105.9
2020-07-14T06:28:03,42.805,6.029,0.041,-0.006,-0.013,104.0,120.0,100.0,13.4,1505.2,323.6,-0.7,1.8,2470.346,13.3,0.041,98.3
2020-07-14T06:31:03,42.805,6.029,0.003,0.013,-0.022,101.0,121.0,100.0,13.3,1505.3,323.2,-0.7,1.8,2470.354,13.31,0.013,13.0
2020-07-14T06:34:03,42.805,6.029,0.022,0.017,0.024,102.0,123.0,100.0,13.4,1505.3,328.5,-0.7,1.8,2470.333,13.31,0.027,52.3
2020-07-14T06:37:03,42.805,6.029,0.012,0.007,-0.015,101.0,121.0,101.0,13.4,1505.3,324.1,-0.7,1.8,2470.373,13.32,0.013,59.7
2020-07-14T06:40:03,42.805,6.029,0.002,0.01,-0.024,101.0,122.0,100.0,13.4,1505.3,323.6,-0.7,1.9,2470.36,13.32,0.01,11.3
2020-07-14T06:43:03,42.805,6.029,0.04,0.002,-0.001,102.0,119.0,99.0,13.3,1505.3,327.7,-0.7,1.8,2470.353,13.32,0.04,87.1
2020-07-14T06:46:03,42.805,6.029,-0.03,0.002,-0.052,103.0,121.0,100.0,13.4,1505.3,324.1,-0.7,1.8,2470.322,13.32,0.03,273.8
2020-07-14T06:49:03,42.805,6.029,0.012,0.028,0.012,103.0,120.0,100.0,13.3,1505.3,323.0,-0.7,1.8,2470.35,13.32,0.03,23.2
2020-07-14T06:52:03,42.805,6.029,0.001,-0.018,-0.063,102.0,121.0,101.0,13.4,1505.3,325.8,-0.7,1.8,2470.329,13.32,0.018,176.8
2020-07-14T06:55:03,42.805,6.029,0.012,0.002,-0.054,102.0,119.0,100.0,13.4,1505.3,325.5,-0.7,1.8,2470.335,13.32,0.012,80.5
2020-07-14T06:58:03,42.805,6.029,0.009,0.017,-0.023,104.0,121.0,99.0,13.4,1505.3,325.7,-0.7,1.8,2470.352,13.32,0.019,27.9
2020-07-14T07:04:03,42.805,6.029,0.02,-0.006,-0.036,102.0,120.0,100.0,13.4,1505.2,324.7,-0.8,1.8,2470.354,13.3,0.02,106.7
2020-07-14T07:07:03,42.805,6.029,0.016,-0.006,-0.041,101.0,120.0,101.0,13.4,1505.3,323.7,-0.7,1.8,2470.344,13.31,0.017,110.6
2020-07-14T07:13:03,42.805,6.029,0.037,0.026,0.013,102.0,122.0,101.0,13.4,1505.2,323.8,-0.7,1.8,2470.397,13.3,0.045,54.9
2020-07-14T07:16:03,42.805,6.029,0.023,0.018,-0.002,103.0,122.0,100.0,13.3,1505.3,325.5,-0.7,1.9,2470.347,13.31,0.029,52.0
2020-07-14T07:19:03,42.805,6.029,0.009,0.016,-0.024,102.0,120.0,102.0,13.4,1505.3,323.3,-0.7,1.8,2470.384,13.31,0.018,29.4
2020-07-14T07:22:03,42.805,6.029,0.01,-0.005,-0.033,103.0,121.0,100.0,13.4,1505.3,326.6,-0.7,1.8,2470.345,13.31,0.011,116.6
2020-07-14T07:25:03,42.805,6.029,0.03,0.013,-0.036,103.0,122.0,100.0,13.4,1505.3,328.3,-0.7,1.8,2470.348,13.32,0.032,66.6
2020-07-14T07:28:03,42.805,6.029,0.004,0.008,-0.003,102.0,120.0,101.0,13.4,1505.3,327.1,-0.7,1.8,2470.349,13.32,0.008,26.6
2020-07-14T07:31:03,42.805,6.029,-0.001,-0.002,-0.03,102.0,123.0,100.0,13.3,1505.3,324.8,-0.7,1.8,2470.354,13.32,0.002,206.6
2020-07-14T07:34:03,42.805,6.029,0.037,0.0,0.0,102.0,120.0,100.0,13.3,1505.3,326.7,-0.7,1.8,2470.311,13.32,0.037,90.0
2020-07-14T07:37:03,42.805,6.029,-0.016,-0.003,-0.041,103.0,121.0,100.0,13.4,1505.3,326.7,-0.7,1.9,2470.338,13.32,0.016,259.4
2020-07-14T07:40:03,42.805,6.029,0.002,0.012,-0.014,102.0,122.0,102.0,13.3,1505.3,324.6,-0.7,1.8,2470.311,13.32,0.012,9.5
2020-07-14T07:43:03,42.805,6.029,0.009,0.012,0.009,102.0,120.0,101.0,13.4,1505.3,327.9,-0.7,1.8,2470.301,13.32,0.015,36.9
2020-07-14T07:46:03,42.805,6.029,0.017,0.016,-0.014,103.0,119.0,100.0,13.3,1505.3,326.5,-0.7,1.8,2470.306,13.32,0.023,46.7
2020-07-14T07:49:03,42.805,6.029,0.032,0.009,-0.031,103.0,119.0,101.0,13.3,1505.3,325.5,-0.7,1.9,2470.31,13.32,0.033,74.3
2020-07-14T07:52:03,42.805,6.029,0.025,0.029,0.004,103.0,118.0,101.0,13.4,1505.3,323.2,-0.7,1.8,2470.283,13.32,0.038,40.8
2020-07-14T07:55:03,42.805,6.029,0.001,-0.011,-0.056,103.0,122.0,101.0,13.4,1505.3,324.8,-0.7,1.8,2470.305,13.32,0.011,174.8
2020-07-14T07:58:03,42.805,6.029,0.005,-0.002,-0.048,103.0,121.0,100.0,13.3,1505.3,325.5,-0.7,1.8,2470.321,13.32,0.005,111.8
2020-07-14T08:04:03,42.805,6.029,0.019,0.003,-0.023,102.0,123.0,101.0,13.4,1505.2,326.2,-0.7,1.8,2470.342,13.3,0.019,81.0
2020-07-14T08:07:03,42.805,6.029,0.008,0.007,-0.018,103.0,122.0,101.0,13.4,1505.3,323.5,-0.7,1.8,2470.331,13.31,0.01,48.8
2020-07-14T08:10:03,42.805,6.029,0.028,0.019,0.023,102.0,121.0,101.0,13.4,1505.3,326.6,-0.7,1.8,2470.277,13.31,0.033,55.8
2020-07-14T08:13:03,42.805,6.029,0.007,0.014,-0.042,103.0,124.0,100.0,13.4,1505.3,327.7,-0.7,1.8,2470.331,13.32,0.015,26.6
2020-07-14T08:16:03,42.805,6.029,0.026,0.008,-0.007,102.0,123.0,100.0,13.4,1505.3,323.4,-0.7,1.8,2470.347,13.32,0.027,72.9
2020-07-14T08:19:03,42.805,6.029,0.036,0.018,-0.008,103.0,123.0,100.0,13.4,1505.3,325.0,-0.7,1.8,2470.278,13.32,0.04,63.4
2020-07-14T08:22:03,42.805,6.029,0.023,-0.009,-0.025,103.0,120.0,100.0,13.3,1505.3,323.4,-0.8,1.8,2470.3,13.32,0.024,111.4
2020-07-14T08:25:03,42.805,6.029,0.012,0.013,-0.01,103.0,121.0,100.0,13.4,1505.3,326.8,-0.7,1.8,2470.246,13.32,0.017,42.7
2020-07-14T08:28:03,42.805,6.029,0.024,-0.004,-0.017,103.0,122.0,100.0,13.4,1505.3,326.5,-0.7,1.8,2470.348,13.32,0.024,99.5
2020-07-14T08:31:03,42.805,6.029,0.04,0.025,0.005,103.0,120.0,100.0,13.3,1505.3,324.0,-0.7,1.8,2470.267,13.32,0.047,58.0
2020-07-14T08:34:03,42.805,6.029,0.023,0.014,-0.002,102.0,122.0,100.0,13.4,1505.3,327.9,-0.7,1.8,2470.307,13.32,0.026,58.7
2020-07-14T08:37:03,42.805,6.029,0.011,0.004,-0.041,102.0,120.0,101.0,13.4,1505.3,324.4,-0.7,1.9,2470.321,13.32,0.011,70.0
2020-07-14T08:40:03,42.805,6.029,0.04,-0.001,-0.008,102.0,118.0,101.0,13.4,1505.3,323.1,-0.7,1.9,2470.326,13.32,0.04,91.4
2020-07-14T08:43:03,42.805,6.029,0.016,0.014,0.018,104.0,123.0,101.0,13.4,1505.3,326.0,-0.7,1.9,2470.322,13.32,0.021,48.8
2020-07-14T08:46:03,42.805,6.029,0.007,0.022,-0.01,102.0,121.0,101.0,13.4,1505.3,324.9,-0.7,1.9,2470.293,13.32,0.023,17.6
2020-07-14T08:49:03,42.805,6.029,0.025,0.008,-0.018,103.0,121.0,100.0,13.4,1505.3,326.5,-0.7,1.8,2470.278,13.32,0.026,72.3
2020-07-14T08:52:03,42.805,6.029,0.049,0.004,0.0,101.0,122.0,101.0,13.4,1505.3,326.3,-0.7,1.8,2470.299,13.32,0.049,85.3
2020-07-14T08:55:03,42.805,6.029,0.0,0.033,0.01,103.0,120.0,100.0,13.3,1505.3,323.2,-0.7,1.8,2470.252,13.32,0.033,0.0
2020-07-14T08:58:03,42.805,6.029,0.019,-0.016,0.004,103.0,121.0,99.0,13.4,1505.3,324.3,-0.7,1.8,2470.269,13.32,0.024,130.1
2020-07-14T09:04:03,42.805,6.029,0.034,0.013,-0.027,102.0,120.0,100.0,13.4,1505.2,327.2,-0.7,1.8,2470.316,13.3,0.036,69.1
2020-07-14T09:07:03,42.805,6.029,0.008,0.001,-0.025,102.0,120.0,101.0,13.3,1505.3,324.2,-0.7,1.8,2470.334,13.31,0.008,82.9
2020-07-14T09:10:03,42.805,6.029,0.026,0.007,-0.029,103.0,118.0,100.0,13.4,1505.3,326.7,-0.7,1.8,2470.324,13.31,0.026,74.9
2020-07-14T09:13:03,42.805,6.029,0.021,0.0,-0.006,102.0,119.0,100.0,13.4,1505.3,327.8,-0.7,1.8,2470.323,13.32,0.021,90.0
2020-07-14T09:16:03,42.805,6.029,0.042,0.002,-0.018,102.0,116.0,101.0,13.3,1505.3,328.2,-0.7,1.8,2470.33,13.32,0.042,87.3
2020-07-14T09:19:03,42.805,6.029,0.022,0.013,-0.008,103.0,119.0,100.0,13.3,1505.3,324.9,-0.7,1.9,2470.323,13.32,0.025,59.4
2020-07-14T09:22:03,42.805,6.029,0.025,0.005,0.007,102.0,119.0,100.0,13.4,1505.3,326.9,-0.7,1.8,2470.323,13.32,0.025,78.7
2020-07-14T09:25:03,42.805,6.029,0.021,0.005,0.009,101.0,118.0,101.0,13.4,1505.3,323.4,-0.7,1.8,2470.302,13.32,0.021,76.6
2020-07-14T09:28:03,42.805,6.029,0.032,-0.002,-0.012,103.0,119.0,100.0,13.4,1505.3,323.8,-0.7,1.8,2470.308,13.32,0.032,93.6
2020-07-14T09:31:03,42.805,6.029,-0.014,0.006,-0.042,101.0,116.0,101.0,13.3,1505.3,328.1,-0.7,1.8,2470.289,13.32,0.015,293.2
2020-07-14T09:34:03,42.805,6.029,0.032,0.028,0.006,103.0,118.0,100.0,13.3,1505.3,324.5,-0.7,1.9,2470.282,13.32,0.042,48.8
2020-07-14T09:37:03,42.805,6.029,0.019,0.006,-0.019,101.0,115.0,101.0,13.4,1505.3,324.9,-0.7,1.8,2470.284,13.32,0.019,72.5
2020-07-14T09:40:03,42.805,6.029,0.014,0.021,-0.041,102.0,121.0,101.0,13.4,1505.3,322.9,-0.7,1.8,2470.298,13.32,0.025,33.7
2020-07-14T09:43:03,42.805,6.029,0.037,0.024,-0.015,103.0,119.0,101.0,13.4,1505.3,326.6,-0.7,1.9,2470.262,13.32,0.044,57.0
2020-07-14T09:46:03,42.805,6.029,0.023,0.004,0.02,103.0,117.0,100.0,13.4,1505.3,325.9,-0.7,1.8,2470.282,13.32,0.023,80.1
2020-07-14T09:49:03,42.805,6.029,0.026,0.009,-0.019,103.0,121.0,100.0,13.4,1505.3,324.9,-0.7,1.8,2470.296,13.32,0.027,70.9
2020-07-14T09:52:03,42.805,6.029,0.013,0.014,-0.022,102.0,118.0,101.0,13.3,1505.3,323.9,-0.7,1.8,2470.334,13.32,0.019,42.9
2020-07-14T09:55:03,42.805,6.029,0.016,-0.003,-0.034,102.0,120.0,101.0,13.4,1505.3,327.8,-0.7,1.8,2470.298,13.32,0.016,100.6
2020-07-14T09:58:03,42.805,6.029,0.035,0.004,-0.01,103.0,121.0,101.0,13.3,1505.3,325.2,-0.7,1.8,2470.339,13.32,0.035,83.5
2020-07-14T10:04:03,42.805,6.029,0.033,-0.002,-0.019,102.0,118.0,100.0,13.4,1505.2,323.6,-0.8,1.8,2470.303,13.3,0.033,93.5
2020-07-14T10:07:03,42.805,6.029,0.023,0.013,0.005,102.0,119.0,100.0,13.3,1505.3,327.2,-0.7,1.8,2470.357,13.31,0.026,60.5
2020-07-14T10:13:03,42.805,6.029,0.017,0.003,-0.018,103.0,117.0,100.0,13.4,1505.2,323.8,-0.8,1.8,2470.336,13.3,0.017,80.0
2020-07-14T10:16:03,42.805,6.029,0.05,0.015,-0.01,103.0,115.0,100.0,13.3,1505.3,324.9,-0.7,1.8,2470.367,13.31,0.052,73.3